Simultaneous Nadir Overpasses (SNOs) Predictions

Prediction of SNOs between GOES-17 and TERRA Satellite Orbit:

Table of predicted SNOs for the next 14.0 days since TLE Epoch: 2/11/2023
Index Date Time (GOES-17) GOES-17 Lat,Lon TERRA Lat,Lon Distance(km) Time Diff (sec)
1 02/11/2023 05:05:31 -0.00,-103.40 -0.17,-104.06 75.63 80
2 02/13/2023 04:52:12 -0.00,-101.83 0.34,-100.15 190.53 80
3 02/13/2023 17:09:47 0.01,-101.46 0.79,-105.06 409.87 80
4 02/15/2023 04:36:12 -0.01,-100.26 0.82, -96.24 456.59 80
5 02/15/2023 16:53:48 0.01, -99.89 0.30,-101.15 143.85 80
6 02/17/2023 16:40:28 0.01, -98.31 -0.22, -97.24 122.13 80
7 02/18/2023 04:58:12 -0.02, -97.87 -0.95,-102.18 490.33 80
8 02/19/2023 16:24:27 0.01, -96.74 -0.72, -93.32 388.74 80
9 02/20/2023 04:42:11 -0.02, -96.30 -0.43, -98.27 223.50 80
10 02/22/2023 04:28:49 -0.01, -94.74 0.06, -94.35 44.12 80
11 02/24/2023 04:12:48 -0.01, -93.18 0.58, -90.43 312.64 80
12 02/24/2023 16:30:22 0.02, -92.81 0.57, -95.34 287.17 80
